SCP
1 1 1 1 0 0 0 0 0 0 0 0 0 0 0 0 0 0 0 0 0 0 0 0 0 0 0 0 0 0 0 0 0 0 0 0 0 0 0 0 0 0 0
1 1 1 1 0 0 0 0 0 0 0 0 0 0 0 0 0 0 0 0 0 0 0 0 0 0 0 0 0 0 0 0 0 0 0 0 0 0 0 0 0 0 0
1 1 1 0 0 0 0 0 0 0 0 0 0 0 0 0 0 0 0 0 0 0 0 0 0 0 0 0 0 0 0 0 0 0 0 0 0 0 0 0 0 0 0
1 1 1 0 0 0 1 0 0 0 0 0 0 0 0 0 0 0 0 0 0 0 0 0 0 0 0 0 0 0 0 0 0 0 0 0 0 0 0 0 0 0 0
1 1 0 0 0 0 0 0 0 0 0 0 0 0 0 0 0 0 0 0 0 0 0 0 0 0 0 0 0 0 0 0 0 0 0 0 0 0 0 0 0 0 0
1 1 1 0 0 0 0 0 0 0 0 0 0 0 0 0 0 0 0 0 0 0 0 0 0 0 0 0 0 0 0 0 0 0 0 0 0 0 0 0 0 0 0
2 1 1 0 0 0 0 0 0 0 0 0 0 0 0 0 0 0 0 0 0 0 0 0 1 1 0 0 0 0 0 0 0 0 0 1 0 0 1 1 1 0 0
2 1 1 1 0 0 0 0 0 0 0 0 0 0 0 0 0 0 0 0 0 0 0 0 1 1 1 1 0 0 0 0 0 0 0 0 0 0 1 1 1 1 0
2 2 1 1 1 0 0 0 0 0 0 0 0 0 0 0 0 0 0 0 0 0 0 0 0 1 1 1 1 0 0 0 0 0 0 0 0 0 0 1 1 1 0
2 2 1 1 1 0 0 0 0 0 0 0 0 0 0 0 0 0 0 0 0 0 0 0 0 0 1 1 1 0 0 0 0 0 0 0 0 0 0 0 0 0 0
2 2 2 1 1 0 0 0 0 0 0 0 0 0 0 0 0 0 0 0 0 0 0 0 0 0 0 0 0 0 0 0 0 0 0 0 0 0 0 0 0 0 0
2 2 2 1 1 0 0 0 0 0 0 0 0 0 0 0 0 0 0 0 0 0 0 0 0 0 0 0 0 0 0 0 0 0 0 0 0 0 0 0 0 0 0
1 2 2 1 1 0 0 0 0 0 0 0 0 0 0 0 0 0 0 0 0 0 0 0 0 0 0 0 0 0 0 0 0 0 0 0 0 0 0 0 0 0 0
1 1 1 1 1 0 0 0 0 0 0 0 0 0 0 0 0 0 0 0 0 0 0 0 0 0 0 0 0 0 0 0 0 0 0 0 0 0 0 0 0 0 0
0 1 1 1 1 1 0 0 0 0 0 0 0 1 1 1 1 1 1 0 0 0 0 0 0 0 0 0 0 0 0 0 0 0 0 0 0 0 0 0 0 0 0
0 1 1 1 1 1 1 1 0 0 1 1 1 1 1 1 1 1 1 1 1 1 0 0 1 1 1 1 1 1 0 0 0 0 0 0 0 0 0 0 0 0 0
1 1 1 1 1 1 1 1 1 1 1 1 1 1 1 1 1 1 2 2 1 1 1 1 1 1 1 1 1 1 1 1 0 0 0 0 0 0 0 0 0 0 0
1 1 1 1 1 1 1 1 1 1 1 1 1 1 1 1 1 2 2 2 2 2 1 1 1 1 2 2 2 1 1 1 1 0 0 0 0 0 0 0 0 0 0
1 1 1 1 1 1 1 1 1 1 1 1 1 1 1 2 2 2 2 2 2 2 2 2 1 2 2 2 2 2 1 1 1 1 0 0 0 0 0 0 0 0 0
1 1 1 1 1 1 1 1 1 1 2 2 2 2 2 2 2 2 2 3 3 3 3 2 2 2 2 2 2 2 2 2 2 1 1 1 1 1 0 0 0 0 0
1 1 1 1 1 1 1 2 2 2 2 2 2 2 2 1 1 1 1 2 2 3 3 2 2 2 2 2 3 3 2 2 2 2 2 2 1 1 1 1 0 0 0
1 1 2 2 1 1 1 1 2 2 2 2 2 2 2 1 1 1 1 1 1 2 2 2 2 2 2 3 3 3 2 2 2 3 3 2 2 2 1 1 0 0 0
2 2 2 2 2 2 1 0 1 1 2 2 2 2 1 1 1 1 1 1 1 1 1 1 1 2 2 3 3 3 2 2 2 2 3 2 2 1 1 1 1 0 0
3 2 3 3 2 2 1 0 0 1 1 1 1 1 1 1 1 1 1 1 1 1 1 1 1 1 2 2 2 2 2 2 2 2 2 2 2 1 1 1 1 0 0
2 2 2 2 2 1 0 0 0 1 1 1 1 1 1 1 1 0 1 1 2 2 1 0 0 1 1 1 1 1 2 2 1 2 2 2 2 1 1 1 1 0 0
2 2 1 1 1 1 0 0 0 1 1 1 1 1 1 0 0 0 1 1 2 2 1 1 0 0 0 0 0 1 1 1 1 1 2 2 2 2 1 1 1 1 1
Wind_Speed
4 4 2 2 2 2 4 3 2 3 2 3 2 3 3 2 2 2 5 8 7 6 7 8 8 8 8 8 8 9 8 8 7 7 7 7 8 8 7 7 6 6 5
3 3 4 3 2 2 1 2 2 2 2 2 2 3 3 3 3 3 4 7 8 7 7 8 8 8 8 8 9 9 9 9 8 8 8 7 7 7 8 7 7 7 6
4 3 3 3 2 2 3 2 3 2 3 3 3 2 2 2 3 3 2 3 6 8 7 7 7 7 8 8 9 9 9 9 9 9 9 8 8 8 8 8 8 7 7
4 3 3 3 3 3 3 2 3 3 2 2 2 1 2 2 3 3 4 3 3 4 8 8 7 7 8 8 8 9 9 9 9 10 10 9 9 9 8 8 9 8 8
5 4 3 2 4 3 3 3 3 2 3 2 3 2 2 2 2 3 3 3 3 3 4 8 8 8 8 8 9 9 9 10 10 10 11 11 11 10 10 9 9 9 9
5 4 3 4 4 3 3 2 3 1 2 2 2 3 2 2 2 2 3 3 3 4 4 4 6 8 9 8 8 9 9 10 10 11 12 12 12 11 11 11 10 10 10
5 4 3 4 4 3 3 5 4 5 4 3 3 4 4 3 2 2 1 1 2 3 3 3 3 3 6 10 8 8 9 9 10 10 11 12 12 12 11 12 12 11 12
6 6 4 4 4 3 4 4 4 3 3 3 3 3 4 5 4 2 2 3 2 2 3 4 3 3 3 4 6 8 8 8 9 9 10 10 11 11 12 12 12 12 12
6 4 5 4 4 5 5 4 4 5 4 4 3 3 2 1 3 5 3 2 2 2 3 2 3 3 3 2 4 7 6 6 7 8 8 8 9 10 10 11 12 12 13
6 6 5 4 4 3 4 5 4 4 4 4 4 2 3 4 3 2 5 4 3 3 2 2 3 4 3 3 2 3 4 3 5 6 6 6 7 8 9 10 11 12 12
6 6 5 5 4 4 3 2 3 4 4 4 3 3 3 2 5 4 1 2 4 4 3 3 3 2 3 3 3 5 5 3 2 3 3 3 5 6 7 8 10 11 12
6 7 6 5 5 3 4 4 3 4 3 2 3 3 3 3 3 3 3 4 3 3 3 3 4 3 3 4 3 8 5 3 3 3 3 3 3 4 6 6 8 9 10
6 7 6 5 4 4 4 4 4 3 4 3 4 3 3 4 3 4 4 4 3 2 3 5 5 4 4 4 3 7 7 6 5 5 5 5 5 5 5 6 6 7 8
6 7 7 6 5 5 5 4 4 4 4 4 4 3 3 3 3 4 4 4 5 4 5 5 3 4 4 4 3 5 6 9 8 7 7 7 7 7 7 8 8 7 7
6 7 7 7 6 6 5 5 4 4 4 5 5 5 5 3 4 4 4 5 5 6 4 4 4 4 4 4 4 6 7 8 9 9 9 9 9 9 9 9 9 9 9
6 7 7 7 6 6 6 6 5 5 5 5 4 4 4 5 4 4 4 4 5 6 6 2 3 3 3 4 6 7 8 7 10 11 11 11 11 12 12 11 11 11 11
7 7 7 7 7 7 7 6 6 6 7 6 6 6 7 6 5 5 5 5 5 6 7 6 4 4 5 8 6 6 8 8 9 15 14 13 13 13 13 13 13 13 13
7 7 7 7 7 6 6 7 7 7 7 7 7 7 8 6 7 7 6 7 6 6 7 8 7 6 7 8 8 8 9 8 9 10 15 14 14 14 14 14 15 15 15
6 6 7 7 6 6 6 6 7 7 7 8 7 8 8 8 8 7 7 7 7 7 7 8 8 6 6 7 7 9 10 8 10 9 13 15 16 15 15 15 15 15 15
6 6 6 5 5 5 5 6 6 7 7 7 7 7 7 7 8 8 7 8 8 8 7 8 8 7 7 7 7 8 8 8 8 9 8 8 11 15 17 17 17 17 16
5 5 4 4 3 3 3 4 5 5 5 5 5 5 5 3 3 4 6 6 6 7 7 8 8 8 7 6 6 7 8 8 8 8 9 9 9 10 11 16 19 18 17
4 3 3 2 1 1 4 4 3 3 3 3 3 3 2 1 2 3 4 6 6 7 8 7 7 8 8 7 6 7 8 9 9 6 7 9 9 10 9 11 10 13 16
4 4 3 3 3 5 6 4 2 1 1 1 2 2 1 3 3 2 2 5 5 4 4 7 9 8 7 6 7 8 8 10 10 9 9 12 11 12 11 11 9 10 13
5 4 4 4 5 7 7 5 3 1 2 3 3 3 2 3 5 5 5 3 3 2 3 4 6 7 7 7 7 9 10 11 12 11 11 12 11 12 11 11 9 11 14
7 6 7 7 8 9 10 8 5 2 3 4 4 4 3 3 6 7 5 4 5 4 3 3 5 7 8 9 8 8 10 10 12 11 9 10 11 11 11 12 11 13 15
8 8 9 8 9 9 10 10 7 3 3 3 2 3 6 5 6 7 6 6 6 6 7 7 7 8 9 9 10 9 10 10 11 11 8 8 10 10 12 10 10 9 9
Wind_Direction
173 156 155 167 185 156 170 178 160 142 165 170 180 163 166 154 165 156 132 158 178 186 184 184 189 193 191 189 189 188 185 185 181 180 179 179 177 176 176 174 173 171 171
169 174 172 180 182 184 142 169 153 160 162 129 156 148 173 160 153 178 152 156 171 183 190 192 195 201 203 203 200 200 199 195 190 190 191 190 189 188 188 187 185 185 186
170 185 178 187 175 160 161 184 160 169 171 158 147 157 166 165 147 168 176 174 166 175 186 192 198 203 207 211 209 207 205 204 198 198 200 199 198 199 199 198 196 196 196
178 197 190 179 168 185 182 167 192 177 158 165 150 166 152 155 160 178 188 192 191 179 177 184 195 201 206 211 213 211 209 209 207 205 206 206 206 207 207 207 206 204 202
181 200 187 150 188 185 186 194 163 199 166 170 164 166 163 151 171 177 184 196 192 212 183 166 188 201 207 213 218 218 216 217 215 214 215 215 214 213 212 212 211 209 208
179 193 175 173 203 183 183 176 151 182 183 195 190 144 167 148 177 153 202 181 192 207 205 187 190 191 200 210 218 221 222 223 222 222 222 222 221 219 216 215 216 215 214
172 199 188 173 212 193 190 184 188 177 190 185 193 177 167 172 163 181 200 208 180 199 193 195 220 201 184 192 205 217 224 226 224 224 224 223 222 221 220 219 219 221 222
180 190 193 192 192 179 185 187 203 207 179 198 234 205 187 174 185 175 183 189 189 193 191 188 187 197 235 191 171 202 222 227 225 225 226 226 227 225 223 224 223 224 227
184 184 186 202 187 202 176 192 197 212 203 191 247 274 262 198 163 161 180 187 203 218 217 185 199 185 209 210 183 181 201 215 222 225 227 228 228 227 226 227 226 227 230
184 179 184 186 195 199 166 200 194 216 224 211 190 254 321 352 299 169 178 176 188 224 237 236 203 179 199 204 142 117 166 203 222 230 235 234 230 228 230 233 235 235 234
182 178 181 182 189 198 180 194 177 230 227 240 220 207 215 230 266 286 241 182 192 201 203 225 237 213 200 212 201 145 151 182 206 218 217 224 230 234 238 241 246 246 241
179 178 183 183 192 189 177 190 196 201 238 260 267 250 244 250 250 259 264 245 231 195 197 236 241 226 218 215 191 126 156 185 203 208 212 224 236 244 247 251 253 254 252
177 175 181 183 187 181 185 187 195 206 203 209 235 247 259 272 285 281 280 278 273 235 202 227 223 228 230 225 177 153 186 200 212 218 224 231 238 243 245 252 258 259 260
177 166 179 185 187 189 193 192 207 200 203 218 230 249 253 247 258 264 274 283 268 248 217 225 216 219 233 235 156 191 207 194 212 223 229 234 240 244 246 248 251 253 255
174 173 184 188 191 196 203 207 217 214 208 224 220 212 238 235 241 254 261 269 279 278 256 196 222 194 219 233 173 231 239 193 207 224 232 237 240 243 244 245 247 248 249
178 178 188 193 197 199 203 215 215 208 216 221 238 244 245 245 238 243 249 253 263 277 283 273 228 225 230 259 195 235 249 193 212 225 232 236 240 242 243 244 245 246 247
184 189 195 201 206 207 206 211 226 212 219 221 222 223 229 251 252 247 241 246 249 256 265 271 255 233 236 263 252 248 250 244 233 211 219 229 236 240 242 243 244 245 246
194 196 200 206 212 212 211 217 224 222 224 228 229 231 234 229 232 252 254 251 252 256 262 271 272 255 233 242 251 256 258 251 257 214 207 223 233 239 241 242 242 243 244
198 203 203 210 217 218 219 225 231 233 233 235 237 236 238 239 237 241 244 251 250 244 247 262 265 267 260 250 250 250 254 256 265 247 211 218 228 236 241 242 242 242 243
198 205 210 217 220 222 228 233 234 237 240 241 241 242 243 242 242 247 247 250 258 262 255 257 264 263 257 253 251 261 261 246 252 267 264 249 230 226 234 237 239 239 240
193 194 201 211 222 230 247 253 248 245 247 249 246 247 249 259 296 280 276 269 262 258 260 259 262 266 265 267 264 270 276 280 270 267 268 264 253 245 234 230 232 236 236
182 176 183 181 190 7 48 36 310 279 270 263 266 267 256 243 266 254 279 289 293 279 277 277 276 278 285 289 292 286 287 283 281 280 282 278 277 273 268 263 242 219 224
144 138 135 123 98 60 53 62 46 331 7 4 356 340 340 32 15 328 268 242 255 262 283 288 288 294 300 305 305 293 288 288 286 293 292 280 277 274 271 267 242 224 226
120 115 109 102 88 62 49 49 43 82 60 53 47 42 35 29 19 349 321 310 300 294 282 273 286 290 297 307 295 285 284 279 273 265 260 268 273 275 278 278 257 229 230
103 97 88 85 81 65 44 35 10 81 77 65 53 49 34 37 24 350 321 313 305 296 251 247 271 275 281 276 275 280 276 275 277 277 271 271 277 280 280 278 272 242 229
102 97 87 80 76 68 50 37 7 39 60 53 62 76 66 33 16 352 325 315 308 314 315 300 277 263 261 256 236 249 271 277 281 283 283 282 283 286 283 276 277 279 261